Weather History for La Junta, CO

Change the Weather History Date:

Friday, March 29, 2013

  Actual Average Record
Temperature  
Mean Temperature 55 °F 48 °F  
Max Temperature 75 °F 63 °F 85 °F (1967)
Min Temperature 34 °F 32 °F 7 °F (1972)
Degree Days  
Heating Degree Days 10 17  
Month to date heating degree days 653 616  
Since 1 July heating degree days 4429 4717  
Cooling Degree Days 0 0  
Month to date cooling degree days 0 0  
Year to date cooling degree days 0 0  
Growing Degree Days 6 (Base 50)    
Moisture  
Dew Point 30 °F    
Average Humidity 48    
Maximum Humidity 82    
Minimum Humidity 14    
Precipitation  
Precipitation 0.00 in 0.03 in 0.58 in (1990)
Month to date precipitation 0.24 0.74  
Year to date precipitation 0.35 1.39  
Sea Level Pressure  
Sea Level Pressure 29.99 in    
Wind  
Wind Speed 6 mph (NNE)    
Max Wind Speed 17 mph    
Max Gust Speed 22 mph    
Visibility 10 miles    
Events      
T = Trace of Precipitation, MM = Missing Value Source: NWS Daily Summary

Daily Weather History Graph

Daily Weather History Graph

Search for Another Location

Airport:

Trip Planner

Search our weather history database for the weather conditions in past years. The results will help you decide how hot, cold, wet, or windy it might be!

Date:

Astronomy

Mar. 29, 2013 Rise Set
Actual Time 6:43 AM MDT 7:14 PM MDT
Civil Twilight 6:16 AM MDT 7:41 PM MDT
Nautical Twilight 5:45 AM MDT 8:12 PM MDT
Astronomical Twilight 5:13 AM MDT 8:44 PM MDT
Moon 10:13 PM MDT (3/29) 7:56 AM MDT (3/29)
Length of Visible Light 13h 24m
Length of Day
12h 31m
Waning Gibbous, 93% of the Moon is Illuminated
Mar 29
Waning Gibbous
Apr 2
Last Quarter
Apr 10
New
Apr 18
First Quarter
Apr 25
Full

Hourly Weather History & Observations

Time (MDT) Temp. Windchill Dew Point Humidity Pressure Visibility Wind Dir Wind Speed Gust Speed Precip Events Conditions
12:53 AM 43.0 °F 39.5 °F 30.9 °F 62% 30.04 in 10.0 mi NE 5.8 mph - N/A   Clear
1:53 AM 43.0 °F 38.8 °F 33.1 °F 68% 30.04 in 10.0 mi East 6.9 mph - N/A   Clear
2:53 AM 41.0 °F 37.1 °F 32.0 °F 70% 30.02 in 10.0 mi East 5.8 mph - N/A   Clear
3:53 AM 41.0 °F - 33.1 °F 73% 30.02 in 10.0 mi Calm Calm - N/A   Clear
4:53 AM 37.9 °F - 32.0 °F 79% 30.04 in 10.0 mi Calm Calm - N/A   Clear
5:53 AM 37.9 °F - 32.0 °F 79% 30.04 in 10.0 mi Calm Calm - N/A   Clear
6:53 AM 36.0 °F 30.3 °F 30.0 °F 79% 30.06 in 10.0 mi West 6.9 mph - N/A   Clear
7:53 AM 37.9 °F 35.5 °F 30.9 °F 76% 30.08 in 9.0 mi WSW 3.5 mph - N/A   Clear
8:53 AM 44.1 °F 39.5 °F 33.1 °F 65% 30.08 in 10.0 mi WSW 8.1 mph - N/A   Clear
9:53 AM 52.0 °F - 33.1 °F 49% 30.06 in 10.0 mi West 5.8 mph - N/A   Clear
10:53 AM 57.0 °F - 33.1 °F 40% 30.04 in 10.0 mi WSW 8.1 mph - N/A   Clear
11:53 AM 62.1 °F - 30.9 °F 31% 30.01 in 10.0 mi WSW 4.6 mph - N/A   Clear
12:53 PM 66.9 °F - 30.0 °F 25% 29.99 in 10.0 mi Variable 6.9 mph - N/A   Clear
1:53 PM 69.1 °F - 27.0 °F 21% 29.95 in 10.0 mi Calm Calm - N/A   Clear
2:53 PM 71.1 °F - 23.0 °F 16% 29.92 in 10.0 mi Variable 4.6 mph - N/A   Clear
3:53 PM 73.0 °F - 21.9 °F 15% 29.90 in 10.0 mi WNW 6.9 mph - N/A   Clear
4:53 PM 75.0 °F - 23.0 °F 14% 29.88 in 10.0 mi NE 10.4 mph 16.1 mph N/A   Partly Cloudy
5:53 PM 72.0 °F - 23.0 °F 16% 29.89 in 10.0 mi NE 6.9 mph - N/A   Clear
6:53 PM 66.9 °F - 23.0 °F 19% 29.91 in 10.0 mi ENE 9.2 mph - N/A   Clear
7:53 PM 61.0 °F - 25.0 °F 25% 29.95 in 10.0 mi NE 4.6 mph - N/A   Partly Cloudy
8:53 PM 62.1 °F - 26.1 °F 25% 29.97 in 10.0 mi North 11.5 mph - N/A   Overcast
9:53 PM 59.0 °F - 34.0 °F 39% 29.97 in 10.0 mi NNE 16.1 mph - N/A   Clear
10:53 PM 55.9 °F - 34.0 °F 44% 29.97 in 10.0 mi East 3.5 mph - N/A   Clear
11:53 PM 51.1 °F - 34.0 °F 52% 29.98 in 10.0 mi NE 6.9 mph - N/A   Clear